Details From ENGM - Oslo Gardermoen
To ENRY - Rygge
Flight Number -
Tags Routegen Generated
Created
Modified
Stats Distance 62 nm / 114 km
Max Altitude 300 ft / 91 m
Waypoints 5
Social Downloads 8
Likes 0
Share VATSIM

Download

Looking for another format? Having issues loading an existing format? Contact us
Advertisement - Login to hide

Notes

Departing runway 19 ENGM. Arriving runway 11 ENRY.

Route

ENGM +60.12_+011.03 +59.75_+011.04 +59.31_+011.06 ENRY

ID Type Via Altitude Latitude Longitude Leg Dist Tot Dist Heading (true) Name
O ENGM APT - 300 ft / 91 m 60.18500˚ 11.07374˚ - 0 nm - -
+60.12_+011.03 DME - 300 ft / 91 m 60.11543˚ 11.03370˚ 4 nm 4 nm 196° / 196° -
+59.75_+011.04 DME - 300 ft / 91 m 59.75366˚ 11.04416˚ 21 nm 26 nm 179° / 179° -
+59.31_+011.06 DME - 300 ft / 91 m 59.30822˚ 11.05757˚ 26 nm 52 nm 179° / 179° -
O ENRY APT - 0 ft / 0 m 59.37385˚ 10.80460˚ 8 nm 61 nm 297° / 297° -

Altitude Profile

Advertisement - Login to hide

ENGM

Details ICAO ENGM (OSL)
Name Oslo Gardermoen
Region Norway
Timezone Europe/Oslo (UTC+2.0)
Stats Elevation 681 ft / 208 m (AMSL)
Location 60.194507° 11.098998°
Runways 2
Magnetic Variation 3.459° E

METAR

ENGM 211120Z 20011KT 170V230 CAVOK 20/06 Q1025 NOSIG

Decode

TAF

TAF ENGM 210500Z 2106/2206 18005KT CAVOK BECMG 2108/2110 20015KT BECMG 2118/2120 VRB05KT

Decode

Departure Runways

ID Width Length Bearing (true) Bearing (mag) Surface Threshold Offset Overrun Length
01L 148 ft / 45 m 12,144 ft / 3,702 m 15.89° 12.43° Concrete 0 ft / 0 m 499 ft / 152 m
01R 148 ft / 45 m 10,014 ft / 3,052 m 15.89° 12.43° Concrete 0 ft / 0 m 499 ft / 152 m
19L 148 ft / 45 m 10,014 ft / 3,052 m 195.91° 192.45° Concrete 0 ft / 0 m 466 ft / 142 m
19R 148 ft / 45 m 12,144 ft / 3,702 m 195.91° 192.45° Concrete 0 ft / 0 m 482 ft / 147 m

ENRY

Details ICAO ENRY (RYG)
Name RYGGE
Region Norway
Timezone Europe/Oslo (UTC+2.0)
Stats Elevation 174 ft / 53 m (AMSL)
Location 59.378793° 10.785426°
Runways 1
Magnetic Variation 3.290° E

METAR

ENRY 211120Z AUTO 21012KT 9999NDV NCD 19/09 Q1027

Decode

TAF

TAF TAF ENRY 210500Z 2106/2206 14005KT CAVOK BECMG 2107/2109 20012KT BECMG 2118/2120 VRB05KT

Decode

Destination Runways

ID Width Length Bearing (true) Bearing (mag) Surface Threshold Offset Overrun Length
12 148 ft / 45 m 7,990 ft / 2,435 m 116.83° 113.54° Asphalt 0 ft / 0 m 898 ft / 274 m
30 148 ft / 45 m 7,990 ft / 2,435 m 296.86° 293.57° Asphalt 0 ft / 0 m 898 ft / 274 m

Approach Navaids

Runway Type Ident Frequency Range Bearing (true) Bearing (mag) Slope Elevation
30 Localiser RY 109.10 MHz 18 nm / 33 km 296.79° 293.50° - 173 ft / 53 m (AMSL)
30 Glidescope RY 109.10 MHz 10 nm / 19 km 296.84° 293.55° 3.10° 217 ft / 66 m (AMSL)
30 DME RY 109.10 MHz 18 nm / 33 km - - - 174 ft / 53 m (AMSL)

Popular Alternatives